Back to catalog

GEESAT 3-05

AliveScienceLEO
NORAD 61015·PAYLOAD·🇨🇳 China

Launched Sep 5, 2024 from Taiyuan Satellite Launch Center

Loading…

Next Passes (next 24 hours)

TLE

FreshSource: Space-Track

Epoch: Sep 14, 2026, 14:47 UTC

1 61015U 24159E   26257.61648948  .00001521  00000-0  20551-3 0  9997
2 61015  50.0041  28.4588 0012391  39.4368 320.7471 14.84476963110063

Track GEESAT 3-05 in real time with AllMySat

Download on the App Store